Flag for U.S.A. Weather past 2 weeks in Galveston, Texas, U.S.A.

Now
67 °F

Overcast.


Feels Like: 67 °F
Forecast: 62 / 67 °F
Wind: 15 mph from Southeast

Location: Scholes Field

Current Time: Dec 26, 2014 at 5:04:28 PM

Latest Report: Dec 26, 2014 at 3:52 PM


Visibility: 10 mi

Pressure: 29.96 "Hg

Humidity: 90%

Dew point: 64 °F

Location of GalvestonLocation

Historic Weather in Galveston — Graph

°F

Galveston temperature yesterday

Maximum temperature yesterday: 63 °F (at 11:52 AM)
Minimum temperature yesterday: 45 °F (at 6:52 AM)
Average temperature yesterday: 56 °F

Past Weeks' High & Low Weather Summary

 TemperatureHumidityPressure
High73 °F (Dec 15, 12:52 PM)100% (Dec 15, 8:03 AM)30.32 "Hg (Dec 15, 8:03 AM)
Low45 °F (Dec 24, 5:52 AM)44% (Dec 16, 1:52 PM)29.58 "Hg (Dec 23, 8:52 AM)
Average61 °F85%30.06 "Hg
* Reported Dec 11 3:52 PM — Dec 26 3:52 PM, Galveston, Weather by CustomWeather, © 2014

Note: Actual official high and low records may vary slightly from our data, if they occured in-between our weather recording intervals... More about our weather records

Advertising

Galveston weather history for previous 24 hours

 ConditionsComfort  
Time TempWeatherWind HumidityBarometerVisibility
3:52 PM
Dec 26
67 °FOvercast.15 mph90%29.96 "Hg10 mi
2:52 PM68 °FOvercast.16 mph87%29.96 "Hg10 mi
1:52 PM68 °FMostly cloudy.16 mph84%29.97 "Hg10 mi
12:52 PM67 °FMostly cloudy.13 mph90%29.98 "Hg10 mi
11:52 AM68 °FOvercast.14 mph87%30.02 "Hg10 mi
10:52 AM68 °FPartly sunny.13 mph84%30.04 "Hg10 mi
9:52 AM67 °FOvercast.13 mph85%30.05 "Hg10 mi
8:52 AM66 °FScattered clouds.14 mph87%30.04 "Hg10 mi
7:52 AM65 °FOvercast.12 mph87%30.03 "Hg10 mi
6:52 AM64 °FOvercast.13 mph90%30.02 "Hg10 mi
5:52 AM64 °FMostly cloudy.14 mph87%30.02 "Hg10 mi
5:03 AM63 °FMostly cloudy.12 mph90%30.03 "Hg10 mi
4:52 AM63 °FMostly cloudy.12 mph87%30.02 "Hg10 mi
3:52 AM64 °FOvercast.13 mph84%30.03 "Hg10 mi
2:52 AM64 °FOvercast.16 mph81%30.04 "Hg10 mi
1:52 AM63 °FPassing clouds.15 mph78%30.05 "Hg10 mi
12:52 AM63 °FClear.16 mph78%30.05 "Hg10 mi
11:52 PM
Dec 25
63 °FPassing clouds.20 mph73%30.06 "Hg10 mi
10:52 PM63 °FPassing clouds.16 mph73%30.08 "Hg10 mi
9:52 PM62 °FClear.15 mph73%30.07 "Hg10 mi
8:52 PM61 °FClear.15 mph75%30.08 "Hg10 mi
7:52 PM60 °FClear.14 mph75%30.08 "Hg10 mi
6:52 PM60 °FPassing clouds.14 mph72%30.07 "Hg10 mi
5:52 PM60 °FPassing clouds.12 mph72%30.07 "Hg10 mi
Weather by CustomWeather, © 2014

See weather overviewHow to use our weather pages